LDPE-2

Last updated on Sat Oct 25 2025 00:02:53 GMT+0000 (Coordinated Universal Time)

1 54219U 22144A 25297.60253204 .00000043 00000+0 00000+0 0 9996 2 54219 5.0723 65.3480 0000537 134.0701 205.9954 1.02071761 9454
UTC large
Height (km)
Speed (km/s)
/
Latitude / Longitude
Inclination (degrees)
Orbital Period (minutes)
Azimuth
Elevation
Range (km)
Doppler Factor

Next 0 passes for location: London (51.5072 / 0.1276)

Sorry there are no passes over London.